Flag for Portugal Weather past 2 weeks in Guimarães, Portugal

Now
63 °F

Mild.


Feels Like: 63 °F
Forecast: 55 / 77 °F
Wind: 3 mph from East

Location: Porto / Pedras Rubras

Current Time: Aug 5, 2015 at 10:06:45 AM

Latest Report: Aug 5, 2015 at 9:00 AM


Visibility: N/A

Pressure: 30.03 "Hg

Humidity: 73%

Dew point: 54 °F

Location of GuimarãesLocation

Historic Weather in Guimarães — Graph

°F

Guimarães temperature yesterday

Maximum temperature yesterday: 72 °F (at 1:00 PM)
Minimum temperature yesterday: 57 °F (at 6:00 AM)
Average temperature yesterday: 64 °F

Past Weeks' High & Low Weather Summary

 TemperatureHumidityPressure
High77 °F (Aug 3, 12:00 PM)95% (Jul 27, 3:00 AM)30.14 "Hg (Jul 27, 3:00 AM)
Low54 °F (Jul 25, 6:00 AM)38% (Jul 25, 3:00 PM)29.80 "Hg (Jul 31, 6:00 AM)
Average67 °F76%30.02 "Hg
* Reported Jul 21 8:00 AM — Aug 5 8:00 AM, Guimarães, Weather by CustomWeather, © 2015

Note: Actual official high and low records may vary slightly from our data, if they occured in-between our weather recording intervals... More about our weather records

Advertising

Guimarães weather history for previous 24 hours

 ConditionsComfort  
Time TempWeatherWind HumidityBarometerVisibility
8:00 AM
Wed, Aug 5
59 °FCool.2 mph84%30.04 "HgN/A
7:00 AM56 °FCool.2 mph90%30.02 "HgN/A
6:00 AM57 °FCool.No wind92%30.01 "HgN/A
5:00 AM56 °FCool.No wind92%30.01 "HgN/A
4:00 AM58 °FCool.No wind91%30.01 "HgN/A
3:00 AM57 °FCool.1 mph89%30.02 "HgN/A
2:00 AM56 °FCool.2 mph88%30.02 "HgN/A
1:00 AM58 °FCool.1 mph86%30.04 "HgN/A
12:00 AM59 °FCool.2 mph86%30.05 "HgN/A
11:00 PM
Tue, Aug 4
60 °FCool.3 mph85%30.05 "HgN/A
9:00 PM61 °FCool.5 mph79%30.03 "HgN/A
8:00 PM64 °FMild.7 mph68%30.02 "HgN/A
7:00 PM66 °FMild.8 mph60%30.02 "HgN/A
6:00 PM68 °FMild.8 mph56%30.03 "HgN/A
5:00 PM71 °FMild.6 mph52%30.03 "HgN/A
4:00 PM72 °FMild.7 mph51%30.04 "HgN/A
3:00 PM71 °FMild.8 mph51%30.06 "HgN/A
2:00 PM72 °FMild.9 mph50%30.06 "HgN/A
1:00 PM72 °FMild.8 mph48%30.07 "HgN/A
12:00 PM71 °FMild.6 mph55%30.09 "HgN/A
11:00 AM70 °FMild.3 mph65%30.09 "HgN/A
10:00 AM69 °FMild.2 mph65%30.09 "HgN/A
Weather by CustomWeather, © 2015

See weather overviewHow to use our weather pages